Moose, WY

7:36 AM MST on February 22, 2017 (GMT -0700)
Jackson Hole

Weather History for KJAC - January, 2014

Change the Weather History Date:

Saturday, January 11, 2014

  Actual Average Record
Temperature  
Mean Temperature 34 °F -  
Max Temperature 37 °F 27 °F 44 °F (1990)
Min Temperature 30 °F 2 °F -28 °F (1963)
Degree Days  
Heating Degree Days 32    
Moisture  
Dew Point 30 °F    
Average Humidity 88    
Maximum Humidity 100    
Minimum Humidity 75    
Precipitation  
Precipitation 0.01 in - - ()
Sea Level Pressure  
Sea Level Pressure 29.86 in    
Wind  
Wind Speed 14 mph (South)    
Max Wind Speed 29 mph    
Max Gust Speed 36 mph    
Visibility 7 miles    
Events Snow    
Averages and records for this station are not official NWS values.
T = Trace of Precipitation, MM = Missing Value Source: NWS Daily Summary

Daily Weather History Graph

Daily Weather History Graph

Search for Another Location

Airport or City:

Trip Planner

Search our weather history database for the weather conditions in past years. The results will help you decide how hot, cold, wet, or windy it might be!

Date:

Astronomy

Jan. 11, 2014 Rise Set
Actual Time 7:54 AM MST 5:07 PM MST
Civil Twilight 7:22 AM MST 5:39 PM MST
Nautical Twilight 6:47 AM MST 6:15 PM MST
Astronomical Twilight 6:12 AM MST 6:49 PM MST
Moon 1:55 PM MST (1/11) 4:01 AM MST (1/11)
Length of Visible Light 10h 16m
Length of Day
9h 12m
Waxing Gibbous, 83% of the Moon is Illuminated
Jan 11
Waxing Gibbous
Jan 15
Full
Jan 23
Last Quarter
Jan 30
New
Feb 6
First Quarter

Hourly Weather History & Observations

Time (MST) Temp. Windchill Dew Point Humidity Pressure Visibility Wind Dir Wind Speed Gust Speed Precip Events Conditions
12:15 AM 30.2 °F 18.9 °F 24.8 °F 80% 30.00 in 10.0 mi South 16.1 mph - N/A   Overcast
12:35 AM 32.0 °F 22.5 °F 24.8 °F 75% 30.01 in 10.0 mi South 12.7 mph - N/A   Overcast
12:55 AM 32.0 °F 23.6 °F 24.8 °F 75% 30.01 in 10.0 mi South 10.4 mph - N/A   Overcast
1:15 AM 30.2 °F 19.8 °F 26.6 °F 86% 30.01 in 10.0 mi South 13.8 mph 17.3 mph N/A   Overcast
1:35 AM 32.0 °F 24.8 °F 26.6 °F 80% 30.02 in 10.0 mi South 8.1 mph - N/A   Overcast
1:55 AM 32.0 °F 23.0 °F 26.6 °F 80% 30.02 in 10.0 mi South 11.5 mph 21.9 mph N/A   Overcast
2:15 AM 33.8 °F 25.3 °F 26.6 °F 75% 30.03 in 10.0 mi South 11.5 mph 17.3 mph N/A   Overcast
2:35 AM 33.8 °F 25.8 °F 26.6 °F 75% 30.03 in 9.0 mi South 10.4 mph - N/A   Overcast
2:55 AM 32.0 °F 25.6 °F 28.4 °F 87% 30.03 in 7.0 mi SW 6.9 mph - N/A   Overcast
3:15 AM 32.0 °F 28.7 °F 28.4 °F 87% 30.02 in 7.0 mi SSW 3.5 mph - N/A   Overcast
3:35 AM 32.0 °F 26.4 °F 28.4 °F 87% 30.01 in - South 5.8 mph - N/A   Overcast
3:55 AM 32.0 °F 24.8 °F 30.2 °F 93% 30.01 in 5.0 mi SSE 8.1 mph - N/A   Overcast
4:15 AM 32.0 °F 24.8 °F 30.2 °F 93% 30.00 in 7.0 mi ESE 8.1 mph - N/A   Overcast
4:35 AM 32.0 °F 27.5 °F 30.2 °F 93% 30.00 in 10.0 mi SSW 4.6 mph - N/A   Overcast
4:55 AM 33.8 °F 27.0 °F 30.2 °F 87% 29.99 in - SSW 8.1 mph - N/A   Overcast
5:15 AM 33.8 °F 23.5 °F 30.2 °F 87% 30.00 in 9.0 mi South 16.1 mph - N/A   Overcast
5:35 AM 33.8 °F 24.8 °F 30.2 °F 87% 29.99 in 7.0 mi South 12.7 mph - N/A   Overcast
5:55 AM 35.6 °F 26.2 °F 30.2 °F 81% 29.99 in 10.0 mi South 15.0 mph - N/A   Overcast
6:15 AM 33.8 °F 24.8 °F 30.2 °F 87% 29.99 in 5.0 mi SSW 12.7 mph 19.6 mph N/A   Overcast
6:35 AM 33.8 °F 23.5 °F 30.2 °F 87% 29.98 in 4.0 mi South 16.1 mph - N/A   Overcast
6:51 AM 33.8 °F 23.9 °F 30.2 °F 87% 29.97 in 6.0 mi South 15.0 mph - N/A Snow Light Snow
7:51 AM 33.8 °F 27.0 °F 30.2 °F 87% 29.95 in 5.0 mi SSW 8.1 mph - N/A Snow Light Snow
8:30 AM 33.8 °F 23.5 °F 32.0 °F 93% 29.95 in 1.5 mi South 16.1 mph 25.3 mph N/A Snow Light Snow
8:51 AM 33.8 °F 23.5 °F 32.0 °F 93% 29.95 in 2.0 mi South 16.1 mph - N/A Snow Light Snow
9:04 AM 33.8 °F 23.5 °F 32.0 °F 93% 29.95 in 3.0 mi South 16.1 mph 21.9 mph N/A Snow Light Snow
9:22 AM 33.8 °F 23.5 °F 32.0 °F 93% 29.99 in 7.0 mi South 16.1 mph 21.9 mph N/A   Overcast
10:02 AM 35.6 °F 24.2 °F 32.0 °F 87% 29.94 in 6.0 mi South 21.9 mph 26.5 mph N/A Snow Light Snow
11:42 AM 35.6 °F 24.2 °F 32.0 °F 87% 29.87 in 10.0 mi South 21.9 mph 31.1 mph N/A   Overcast
12:53 PM 35.6 °F 23.0 °F 33.8 °F 93% 29.82 in 10.0 mi South 27.6 mph - N/A   Overcast
1:56 PM 35.6 °F 25.5 °F 32.0 °F 87% 29.79 in 5.0 mi South 17.3 mph 23.0 mph N/A Snow Light Snow
2:51 PM 37.4 °F 27.5 °F 32.0 °F 81% 29.73 in 4.0 mi South 18.4 mph 26.5 mph N/A Snow Light Snow
3:54 PM 33.8 °F 21.3 °F 33.8 °F 100% 29.70 in 3.0 mi SSE 24.2 mph 31.1 mph N/A Snow Light Snow
4:51 PM 33.8 °F 21.3 °F 33.8 °F 100% 29.67 in 5.0 mi South 24.2 mph 31.1 mph N/A Snow Light Snow
5:53 PM 33.8 °F 21.9 °F 33.8 °F 100% 29.66 in 3.0 mi SSE 21.9 mph 29.9 mph N/A Snow Light Snow
6:51 PM 33.8 °F 21.0 °F 32.0 °F 93% 29.61 in 7.0 mi SSE 25.3 mph 31.1 mph N/A Snow Light Snow
7:51 PM 33.8 °F 20.3 °F 33.8 °F 100% 29.56 in 3.0 mi SSE 28.8 mph 33.4 mph N/A Snow Light Snow
8:15 PM 33.8 °F 23.5 °F 33.8 °F 100% 29.58 in 1.5 mi South 16.1 mph - N/A Snow Light Snow
9:15 PM 32.0 °F 19.8 °F 32.0 °F 100% 29.64 in 1.2 mi SSW 20.7 mph 35.7 mph N/A   Overcast
9:35 PM 30.2 °F 16.5 °F 30.2 °F 100% 29.64 in 0.5 mi SW 24.2 mph 31.1 mph N/A   Overcast
9:55 PM 30.2 °F 18.1 °F 28.4 °F 93% 29.62 in 6.0 mi SSW 18.4 mph 24.2 mph 0.01 in   Overcast
10:15 PM 32.0 °F 19.8 °F 28.4 °F 87% 29.63 in 4.0 mi SSW 20.7 mph 32.2 mph N/A   Overcast
10:35 PM 30.2 °F 18.1 °F 26.6 °F 86% 29.62 in 9.0 mi South 18.4 mph 27.6 mph N/A   Mostly Cloudy
10:55 PM 30.2 °F 18.5 °F 26.6 °F 86% 29.62 in 10.0 mi SSW 17.3 mph 27.6 mph N/A   Overcast
11:15 PM 30.2 °F 18.1 °F 24.8 °F 80% 29.62 in 8.0 mi SW 18.4 mph 33.4 mph N/A   Overcast
11:35 PM 30.2 °F 17.1 °F 24.8 °F 80% 29.62 in 9.0 mi SW 21.9 mph 32.2 mph N/A   Overcast
11:55 PM 30.2 °F 16.5 °F 24.8 °F 80% 29.62 in 9.0 mi SW 24.2 mph 27.6 mph N/A   Overcast